• In Kazakhstan
  • List of Countries
  • For 7 days
  • Water Temperature
  • Weather Map
  • News
  • Weather Widgets
  • user-avatar
    Login

    Hourly Weather Akhaltsikhe

    Today, 23 September, Monday

    Time Temperature Precipitation Wind Pressure Humidity
    00:00 +4°C° 0 mm 0 mps 650 mmHg 89%
    01:00 +4°C° 0 mm 0 mps 650 mmHg 89%
    02:00 +4°C° 0 mm 0 mps 649 mmHg 88%
    03:00 +5°C° 0 mm 1 mps 649 mmHg 86%
    04:00 +5°C° 0 mm 1 mps 649 mmHg 85%
    05:00 +4°C° 0 mm 0 mps 649 mmHg 84%
    06:00 +4°C° 0 mm 0 mps 649 mmHg 83%
    07:00 +7°C° 0 mm 1 mps 649 mmHg 75%
    08:00 +10°C° 0 mm 1 mps 650 mmHg 68%
    09:00 +13°C° 0 mm 1 mps 651 mmHg 59%
    10:00 +15°C° 0 mm 1 mps 651 mmHg 54%
    11:00 +16°C° 0 mm 1 mps 651 mmHg 49%
    12:00 +19°C° 0 mm 1 mps 651 mmHg 44%
    13:00 +20°C° 0 mm 1 mps 651 mmHg 44%
    14:00 +20°C° 0 mm 1 mps 651 mmHg 43%
    15:00 +20°C° 0 mm 1 mps 650 mmHg 43%
    16:00 +18°C° 0 mm 1 mps 650 mmHg 54%
    17:00 +14°C° 0 mm 1 mps 649 mmHg 65%
    18:00 +12°C° 0 mm 1 mps 648 mmHg 76%
    19:00 +11°C° 0 mm 1 mps 648 mmHg 77%
    20:00 +9°C° 0 mm 0 mps 649 mmHg 78%
    21:00 +8°C° 0 mm 0 mps 649 mmHg 79%
    22:00 +8°C° 0 mm 0 mps 649 mmHg 78%
    23:00 +8°C° 0 mm 0 mps 648 mmHg 77%

    Tomorrow, 24 September, Tuesday

    Time Temperature Precipitation Wind Pressure Humidity
    00:00 +8°C° 0 mm 0 mps 648 mmHg 76%
    01:00 +7°C° 0 mm 0 mps 648 mmHg 75%
    02:00 +7°C° 0 mm 0 mps 648 mmHg 75%
    03:00 +7°C° 0 mm 0 mps 648 mmHg 75%
    04:00 +7°C° 0 mm 0 mps 648 mmHg 74%
    05:00 +7°C° 0 mm 0 mps 648 mmHg 73%
    06:00 +7°C° 0 mm 0 mps 648 mmHg 72%
    07:00 +10°C° 0 mm 1 mps 649 mmHg 66%
    08:00 +13°C° 0 mm 1 mps 650 mmHg 59%
    09:00 +15°C° 0 mm 1 mps 650 mmHg 53%
    10:00 +18°C° 0 mm 1 mps 650 mmHg 49%
    11:00 +19°C° 0 mm 1 mps 651 mmHg 44%
    12:00 +21°C° 0 mm 1 mps 651 mmHg 40%
    13:00 +21°C° 0 mm 1 mps 651 mmHg 39%
    14:00 +22°C° 0 mm 1 mps 650 mmHg 37%
    15:00 +21°C° 0 mm 2 mps 650 mmHg 36%
    16:00 +19°C° 0 mm 1 mps 649 mmHg 45%
    17:00 +16°C° 0 mm 1 mps 648 mmHg 54%
    18:00 +13°C° 0 mm 1 mps 648 mmHg 63%
    19:00 +13°C° 0 mm 1 mps 648 mmHg 64%
    20:00 +11°C° 0 mm 0 mps 648 mmHg 64%
    21:00 +11°C° 0 mm 0 mps 648 mmHg 64%
    22:00 +11°C° 0 mm 0 mps 648 mmHg 63%
    23:00 +11°C° 0 mm 0 mps 648 mmHg 63%

    Day after tomorrow, 25 September, Wednesday

    Time Temperature Precipitation Wind Pressure Humidity
    00:00 +11°C° 0 mm 0 mps 648 mmHg 62%
    01:00 +10°C° 0 mm 0 mps 648 mmHg 63%
    02:00 +10°C° 0 mm 0 mps 648 mmHg 63%
    03:00 +10°C° 0 mm 0 mps 648 mmHg 64%
    04:00 +11°C° 0 mm 1 mps 647 mmHg 65%
    05:00 +10°C° 0 mm 1 mps 647 mmHg 66%
    06:00 +10°C° 0 mm 1 mps 647 mmHg 67%
    07:00 +13°C° 0 mm 1 mps 648 mmHg 62%
    08:00 +15°C° 0 mm 1 mps 649 mmHg 56%
    09:00 +18°C° 0 mm 1 mps 649 mmHg 51%
    10:00 +20°C° 0 mm 1 mps 650 mmHg 46%
    11:00 +22°C° 0 mm 1 mps 650 mmHg 41%
    12:00 +24°C° 0 mm 1 mps 651 mmHg 37%
    13:00 +24°C° 0 mm 1 mps 650 mmHg 36%
    14:00 +24°C° 0 mm 1 mps 650 mmHg 35%
    15:00 +24°C° 0 mm 1 mps 650 mmHg 35%
    16:00 +22°C° 0 mm 1 mps 649 mmHg 44%
    17:00 +19°C° 0 mm 1 mps 649 mmHg 53%
    18:00 +16°C° 0 mm 1 mps 648 mmHg 62%
    19:00 +16°C° 0 mm 1 mps 648 mmHg 61%
    20:00 +14°C° 0 mm 0 mps 649 mmHg 60%
    21:00 +14°C° 0 mm 0 mps 649 mmHg 60%
    22:00 +14°C° 0 mm 0 mps 649 mmHg 59%
    23:00 +15°C° 0 mm 1 mps 649 mmHg 59%

    26 September, Thursday

    Time Temperature Precipitation Wind Pressure Humidity
    00:00 +15°C° 0 mm 1 mps 649 mmHg 59%
    01:00 +15°C° 0 mm 1 mps 649 mmHg 59%
    02:00 +14°C° 0 mm 1 mps 649 mmHg 60%
    03:00 +14°C° 0 mm 1 mps 649 mmHg 60%
    04:00 +14°C° 0 mm 1 mps 649 mmHg 59%
    05:00 +14°C° 0 mm 1 mps 649 mmHg 59%
    06:00 +14°C° 0 mm 1 mps 649 mmHg 58%
    07:00 +16°C° 0 mm 1 mps 649 mmHg 55%
    08:00 +16°C° 0 mm 0 mps 650 mmHg 52%
    09:00 +18°C° 0 mm 0 mps 651 mmHg 49%
    10:00 +21°C° 0 mm 1 mps 651 mmHg 45%
    11:00 +23°C° 0 mm 1 mps 651 mmHg 42%
    12:00 +24°C° 0 mm 1 mps 651 mmHg 39%
    13:00 +24°C° 0.1 mm 2 mps 651 mmHg 41%
    14:00 +24°C° 0.1 mm 2 mps 650 mmHg 43%
    15:00 +23°C° 0.1 mm 2 mps 650 mmHg 45%
    16:00 +20°C° 0 mm 2 mps 649 mmHg 55%
    17:00 +19°C° 0 mm 1 mps 649 mmHg 65%
    18:00 +16°C° 0 mm 1 mps 648 mmHg 76%
    19:00 +15°C° 0 mm 1 mps 648 mmHg 76%
    20:00 +14°C° 0 mm 0 mps 648 mmHg 77%
    21:00 +13°C° 0 mm 0 mps 648 mmHg 77%
    22:00 +13°C° 0 mm 0 mps 648 mmHg 78%
    23:00 +12°C° 0 mm 0 mps 648 mmHg 79%

    27 September, Friday

    Time Temperature Precipitation Wind Pressure Humidity
    00:00 +12°C° 0 mm 0 mps 648 mmHg 79%
    01:00 +12°C° 0 mm 0 mps 648 mmHg 79%
    02:00 +12°C° 0 mm 0 mps 649 mmHg 79%
    03:00 +12°C° 0 mm 0 mps 649 mmHg 79%
    04:00 +12°C° 0 mm 0 mps 649 mmHg 78%
    05:00 +13°C° 0 mm 1 mps 649 mmHg 78%
    06:00 +13°C° 0 mm 1 mps 649 mmHg 78%
    07:00 +15°C° 0 mm 1 mps 649 mmHg 73%
    08:00 +18°C° 0 mm 1 mps 649 mmHg 68%
    09:00 +19°C° 0 mm 1 mps 650 mmHg 63%
    10:00 +21°C° 0 mm 1 mps 650 mmHg 58%
    11:00 +22°C° 0 mm 1 mps 650 mmHg 54%
    12:00 +24°C° 0 mm 1 mps 651 mmHg 49%
    13:00 +24°C° 0.1 mm 1 mps 650 mmHg 49%
    14:00 +24°C° 0.1 mm 1 mps 650 mmHg 49%
    15:00 +24°C° 0.1 mm 1 mps 650 mmHg 48%
    16:00 +22°C° 0.1 mm 1 mps 649 mmHg 58%
    17:00 +20°C° 0.1 mm 1 mps 648 mmHg 67%
    18:00 +18°C° 0.1 mm 1 mps 648 mmHg 77%
    19:00 +16°C° 0 mm 1 mps 648 mmHg 77%
    20:00 +16°C° 0 mm 1 mps 648 mmHg 77%
    21:00 +14°C° 0 mm 0 mps 648 mmHg 78%
    22:00 +14°C° 0 mm 0 mps 648 mmHg 78%
    23:00 +14°C° 0 mm 0 mps 648 mmHg 78%

    28 September, Saturday

    Time Temperature Precipitation Wind Pressure Humidity
    00:00 +14°C° 0 mm 0 mps 648 mmHg 78%
    01:00 +13°C° 0 mm 0 mps 648 mmHg 80%
    02:00 +14°C° 0 mm 1 mps 648 mmHg 81%
    03:00 +14°C° 0 mm 1 mps 648 mmHg 83%
    04:00 +14°C° 0.4 mm 1 mps 648 mmHg 87%
    05:00 +13°C° 0.4 mm 1 mps 648 mmHg 90%
    06:00 +12°C° 0.4 mm 0 mps 648 mmHg 94%
    07:00 +13°C° 2 mm 1 mps 648 mmHg 94%
    08:00 +13°C° 2 mm 1 mps 648 mmHg 94%
    09:00 +14°C° 2 mm 1 mps 649 mmHg 94%
    10:00 +14°C° 0.9 mm 1 mps 649 mmHg 90%
    11:00 +14°C° 0.9 mm 1 mps 649 mmHg 87%
    12:00 +15°C° 0.9 mm 2 mps 650 mmHg 84%
    13:00 +15°C° 0.3 mm 2 mps 650 mmHg 79%
    14:00 +16°C° 0.3 mm 2 mps 650 mmHg 75%
    15:00 +16°C° 0.3 mm 2 mps 650 mmHg 70%
    16:00 +15°C° 0.2 mm 2 mps 650 mmHg 77%
    17:00 +14°C° 0.2 mm 2 mps 649 mmHg 84%
    18:00 +12°C° 0.2 mm 1 mps 649 mmHg 90%
    19:00 +12°C° 0 mm 1 mps 650 mmHg 91%
    20:00 +11°C° 0 mm 1 mps 650 mmHg 93%
    21:00 +11°C° 0 mm 1 mps 650 mmHg 94%
    22:00 +10°C° 0 mm 1 mps 650 mmHg 94%
    23:00 +10°C° 0 mm 1 mps 650 mmHg 94%
    Show more